Cosco Aden — VRKF9 — position and weather

sailwx.info

Track history (hours):
 
Tides and Currents Weather Stations Pressure Air Temp Water Temp Dewpoint Dewpoint Depression Visibility Wind Speed Wind Dir Waves Ship Positions

Cosco Aden

Last reported at 2014-Sep-21 21:14 UTC. Time now 2014-Sep-30 10:15 UTC.
Position N 22°07' E 114°14'.
Warning: this ship's position is 8 days out of date.

Length 261 m; draft 12.4 m.

Type: Ship (hazmat cat A). MMSI: 477765900.

Date/timePositionNaut miles runAvg speedWind from/ knotsBaromVisibWave heightAir tempDewpointWater temp
2014-Sep-21 21:14N 22°07' E 114°14'912.8
2014-Sep-21 20:33N 22°14' E 114°08'1110.6
2014-Sep-21 19:33N 22°21' E 113°59'8 8.3
2014-Sep-21 18:33N 22°27' E 113°53'0 0.4
2014-Sep-21 17:31N 22°27' E 113°53'0 0.0
2014-Sep-21 16:28N 22°27' E 113°53'0 0.1
2014-Sep-21 15:29N 22°27' E 113°53'0 0.0
2014-Sep-21 14:28N 22°27' E 113°53'0 0.0
2014-Sep-21 13:31N 22°27' E 113°53'0 0.1
2014-Sep-21 12:31N 22°27' E 113°53'0 0.0
2014-Sep-21 11:31N 22°27' E 113°53'0 0.0
2014-Sep-21 10:31N 22°27' E 113°53'0 0.0
2014-Sep-21 09:32N 22°27' E 113°53'2 1.6
2014-Sep-21 08:34N 22°25' E 113°53'9 8.3
2014-Sep-21 07:30N 22°21' E 114°01'1111.4
2014-Sep-21 06:32N 22°13' E 114°10'11 7.7
2014-Sep-21 05:04N 22°03' E 114°06'814.0
2014-Sep-21 04:29N 22°00' E 113°57'1213.0
2014-Sep-21 03:33N 22°10' E 113°50'1312.6
2014-Sep-21 02:33N 22°22' E 113°47'1414.4
2014-Sep-21 01:33N 22°36' E 113°42'1 0.2
2014-Sep-20 18:33N 22°37' E 113°42'1212.3
2014-Sep-20 17:33N 22°26' E 113°45'1211.8
2014-Sep-20 16:33N 22°14' E 113°49'1111.4
2014-Sep-20 15:33N 22°03' E 113°51'16813.9
2014-Sep-20 03:29N 22°48' E 116°47'1614.6
2014-Sep-20 02:24N 22°57' E 117°01'1414.1
2014-Sep-20 01:25N 23°04' E 117°14'3014.6
2014-Sep-19 23:21N 23°21' E 117°41'1518.9
2014-Sep-19 22:32N 23°31' E 117°54'1919.2
2014-Sep-19 21:33N 23°43' E 118°10'2019.8
2014-Sep-19 20:33N 23°56' E 118°26'2119.9
2014-Sep-19 19:31N 24°09' E 118°43'2119.5
2014-Sep-19 18:27N 24°23' E 119°01'1819.6
2014-Sep-19 17:33N 24°34' E 119°15'33816.1
2014-Sep-18 20:33N 29°25' E 122°29'1514.5
2014-Sep-18 19:33N 29°39' E 122°26'1313.1
2014-Sep-18 18:33N 29°48' E 122°14'1110.6
2014-Sep-18 17:33N 29°54' E 122°04'1 0.8
2014-Sep-18 16:23N 29°53' E 122°03'0 0.0
2014-Sep-18 15:23N 29°53' E 122°03'0 0.0
2014-Sep-18 14:32N 29°53' E 122°03'0 0.0
2014-Sep-18 13:23N 29°53' E 122°03'0 0.0
2014-Sep-18 12:05N 29°53' E 122°03'0 0.0
2014-Sep-18 11:23N 29°53' E 122°03'0 0.0
2014-Sep-18 10:23N 29°53' E 122°03'0 0.0
2014-Sep-18 09:11N 29°53' E 122°03'0 0.0
2014-Sep-18 08:29N 29°53' E 122°03'0 0.0
2014-Sep-18 07:23N 29°53' E 122°03'0 0.0
2014-Sep-18 06:29N 29°53' E 122°03'0 0.0
2014-Sep-18 03:23N 29°53' E 122°03'2 2.5
2014-Sep-18 02:33N 29°55' E 122°05'1111.0
2014-Sep-18 01:33N 29°48' E 122°15'10 9.9
2014-Sep-18 00:33N 29°45' E 122°26'1515.4
2014-Sep-17 23:33N 29°52' E 122°41'1515.0
2014-Sep-17 22:33N 30°03' E 122°53'1413.8
2014-Sep-17 21:33N 30°16' E 122°59'1814.5
2014-Sep-17 20:17N 30°34' E 122°60'1014.4
2014-Sep-17 19:33N 30°45' E 122°58'1514.9
2014-Sep-17 18:33N 30°59' E 122°60'6014.8
2014-Sep-17 14:32N 31°59' E 122°57'5014.8
2014-Sep-17 11:12N 32°48' E 122°56'22413.4
2014-Sep-16 18:33N 35°58' E 120°32'1413.9
2014-Sep-16 17:34N 36°02' E 120°15'3 0.4
2014-Sep-16 09:23N 35°60' E 120°12'0 0.0
2014-Sep-16 08:29N 35°60' E 120°12'1 0.3
2014-Sep-16 03:32N 36°01' E 120°13'9 9.5
2014-Sep-16 02:33N 36°01' E 120°25'1515.3
2014-Sep-16 01:33N 35°58' E 120°43'8215.0
2014-Sep-15 20:04N 36°36' E 122°14'815.4
2014-Sep-15 19:33N 36°40' E 122°22'1515.2
2014-Sep-15 18:33N 36°49' E 122°38'1514.7
2014-Sep-15 17:33N 37°03' E 122°45'1514.7
2014-Sep-15 16:33N 37°17' E 122°46'1313.5
2014-Sep-15 15:33N 37°30' E 122°42'1414.1
2014-Sep-15 14:33N 37°40' E 122°30'1514.8
2014-Sep-15 13:33N 37°49' E 122°15'1615.4
2014-Sep-15 12:33N 37°58' E 121°59'1915.8
2014-Sep-15 11:23N 38°10' E 121°40'1515.7
2014-Sep-15 10:26N 38°18' E 121°25'15617.5
2014-Sep-15 01:33N 38°52' E 118°10'1312.6
2014-Sep-15 00:34N 38°57' E 117°56'8 6.5
2014-Sep-14 23:23N 38°59' E 117°46'0 0.0
2014-Sep-14 22:29N 38°59' E 117°46'0 0.0
2014-Sep-14 21:29N 38°59' E 117°46'0 0.0
2014-Sep-14 20:17N 38°59' E 117°46'0 0.0
2014-Sep-14 19:29N 38°59' E 117°46'0 0.0
2014-Sep-14 18:29N 38°59' E 117°46'0 0.0
2014-Sep-14 15:29N 38°59' E 117°46'0 0.1
2014-Sep-14 14:29N 38°59' E 117°46'0 0.0
2014-Sep-14 13:17N 38°59' E 117°46'0 0.0
2014-Sep-14 12:29N 38°59' E 117°46'0 0.0
2014-Sep-14 11:29N 38°59' E 117°46'0 0.0
2014-Sep-14 10:11N 38°59' E 117°46'0 0.0
2014-Sep-14 09:29N 38°59' E 117°46'0 0.0
2014-Sep-14 08:29N 38°59' E 117°46'0 0.0
2014-Sep-14 07:33N 38°59' E 117°46'9 8.7
2014-Sep-14 06:33N 38°57' E 117°57'8 8.1
2014-Sep-14 05:33N 38°55' E 118°07'4 3.7
2014-Sep-14 04:32N 38°55' E 118°12'3 0.4
2014-Sep-13 21:12N 38°53' E 118°15'7713.6
2014-Sep-13 15:33N 38°44' E 119°53'1312.9
2014-Sep-13 14:32N 38°42' E 120°10'1212.5
2014-Sep-13 13:33N 38°41' E 120°25'1212.0
2014-Sep-13 12:33N 38°39' E 120°40'1210.7
2014-Sep-13 11:26N 38°37' E 120°55'1011.8
2014-Sep-13 10:34N 38°31' E 121°07'1312.6
2014-Sep-13 09:33N 38°31' E 121°23'1313.1
2014-Sep-13 08:34N 38°32' E 121°40'1313.2
2014-Sep-13 07:33N 38°43' E 121°48'1312.9
2014-Sep-13 06:33N 38°54' E 121°56'6 0.5
2014-Sep-12 18:13N 39°00' E 121°53'910.7
2014-Sep-12 17:24N 38°52' E 121°57'1213.3
2014-Sep-12 16:31N 38°42' E 122°04'1313.9
2014-Sep-12 15:33N 38°30' E 122°12'1414.0
2014-Sep-12 14:33N 38°17' E 122°20'1414.5
2014-Sep-12 13:33N 38°04' E 122°28'1514.8
2014-Sep-12 12:33N 37°51' E 122°37'1515.2
2014-Sep-12 11:34N 37°38' E 122°45'1515.2
2014-Sep-12 10:33N 37°23' E 122°52'1514.7
2014-Sep-12 09:33N 37°09' E 122°53'1414.1
2014-Sep-12 08:33N 36°55' E 122°53'1413.7
2014-Sep-12 07:33N 36°41' E 122°53'  
Track history (hours):
 
Tides and Currents Weather Stations Pressure Air Temp Water Temp Dewpoint Dewpoint Depression Visibility Wind Speed Wind Dir Waves Ship Positions

Cosco Aden

Last reported at 2014-Sep-21 21:14 UTC. Time now 2014-Sep-30 10:15 UTC.
Position N 22°07' E 114°14'.
Warning: this ship's position is 8 days out of date.

Length 261 m; draft 12.4 m.

Type: Ship (hazmat cat A). MMSI: 477765900.

Date/timePositionNaut miles runAvg speedWind from/ knotsBaromVisibWave heightAir tempDewpointWater temp
2014-Sep-21 21:14N 22°07' E 114°14'912.8
2014-Sep-21 20:33N 22°14' E 114°08'1110.6
2014-Sep-21 19:33N 22°21' E 113°59'8 8.3
2014-Sep-21 18:33N 22°27' E 113°53'0 0.4
2014-Sep-21 17:31N 22°27' E 113°53'0 0.0
2014-Sep-21 16:28N 22°27' E 113°53'0 0.1
2014-Sep-21 15:29N 22°27' E 113°53'0 0.0
2014-Sep-21 14:28N 22°27' E 113°53'0 0.0
2014-Sep-21 13:31N 22°27' E 113°53'0 0.1
2014-Sep-21 12:31N 22°27' E 113°53'0 0.0
2014-Sep-21 11:31N 22°27' E 113°53'0 0.0
2014-Sep-21 10:31N 22°27' E 113°53'0 0.0
2014-Sep-21 09:32N 22°27' E 113°53'2 1.6
2014-Sep-21 08:34N 22°25' E 113°53'9 8.3
2014-Sep-21 07:30N 22°21' E 114°01'1111.4
2014-Sep-21 06:32N 22°13' E 114°10'11 7.7
2014-Sep-21 05:04N 22°03' E 114°06'814.0
2014-Sep-21 04:29N 22°00' E 113°57'1213.0
2014-Sep-21 03:33N 22°10' E 113°50'1312.6
2014-Sep-21 02:33N 22°22' E 113°47'1414.4
2014-Sep-21 01:33N 22°36' E 113°42'1 0.2
2014-Sep-20 18:33N 22°37' E 113°42'1212.3
2014-Sep-20 17:33N 22°26' E 113°45'1211.8
2014-Sep-20 16:33N 22°14' E 113°49'1111.4
2014-Sep-20 15:33N 22°03' E 113°51'16813.9
2014-Sep-20 03:29N 22°48' E 116°47'1614.6
2014-Sep-20 02:24N 22°57' E 117°01'1414.1
2014-Sep-20 01:25N 23°04' E 117°14'3014.6
2014-Sep-19 23:21N 23°21' E 117°41'1518.9
2014-Sep-19 22:32N 23°31' E 117°54'1919.2
2014-Sep-19 21:33N 23°43' E 118°10'2019.8
2014-Sep-19 20:33N 23°56' E 118°26'2119.9
2014-Sep-19 19:31N 24°09' E 118°43'2119.5
2014-Sep-19 18:27N 24°23' E 119°01'1819.6
2014-Sep-19 17:33N 24°34' E 119°15'33816.1
2014-Sep-18 20:33N 29°25' E 122°29'1514.5
2014-Sep-18 19:33N 29°39' E 122°26'1313.1
2014-Sep-18 18:33N 29°48' E 122°14'1110.6
2014-Sep-18 17:33N 29°54' E 122°04'1 0.8
2014-Sep-18 16:23N 29°53' E 122°03'0 0.0
2014-Sep-18 15:23N 29°53' E 122°03'0 0.0
2014-Sep-18 14:32N 29°53' E 122°03'0 0.0
2014-Sep-18 13:23N 29°53' E 122°03'0 0.0
2014-Sep-18 12:05N 29°53' E 122°03'0 0.0
2014-Sep-18 11:23N 29°53' E 122°03'0 0.0
2014-Sep-18 10:23N 29°53' E 122°03'0 0.0
2014-Sep-18 09:11N 29°53' E 122°03'0 0.0
2014-Sep-18 08:29N 29°53' E 122°03'0 0.0
2014-Sep-18 07:23N 29°53' E 122°03'0 0.0
2014-Sep-18 06:29N 29°53' E 122°03'0 0.0
2014-Sep-18 03:23N 29°53' E 122°03'2 2.5
2014-Sep-18 02:33N 29°55' E 122°05'1111.0
2014-Sep-18 01:33N 29°48' E 122°15'10 9.9
2014-Sep-18 00:33N 29°45' E 122°26'1515.4
2014-Sep-17 23:33N 29°52' E 122°41'1515.0
2014-Sep-17 22:33N 30°03' E 122°53'1413.8
2014-Sep-17 21:33N 30°16' E 122°59'1814.5
2014-Sep-17 20:17N 30°34' E 122°60'1014.4
2014-Sep-17 19:33N 30°45' E 122°58'1514.9
2014-Sep-17 18:33N 30°59' E 122°60'6014.8
2014-Sep-17 14:32N 31°59' E 122°57'5014.8
2014-Sep-17 11:12N 32°48' E 122°56'22413.4
2014-Sep-16 18:33N 35°58' E 120°32'1413.9
2014-Sep-16 17:34N 36°02' E 120°15'3 0.4
2014-Sep-16 09:23N 35°60' E 120°12'0 0.0
2014-Sep-16 08:29N 35°60' E 120°12'1 0.3
2014-Sep-16 03:32N 36°01' E 120°13'9 9.5
2014-Sep-16 02:33N 36°01' E 120°25'1515.3
2014-Sep-16 01:33N 35°58' E 120°43'8215.0
2014-Sep-15 20:04N 36°36' E 122°14'815.4
2014-Sep-15 19:33N 36°40' E 122°22'1515.2
2014-Sep-15 18:33N 36°49' E 122°38'1514.7
2014-Sep-15 17:33N 37°03' E 122°45'1514.7
2014-Sep-15 16:33N 37°17' E 122°46'1313.5
2014-Sep-15 15:33N 37°30' E 122°42'1414.1
2014-Sep-15 14:33N 37°40' E 122°30'1514.8
2014-Sep-15 13:33N 37°49' E 122°15'1615.4
2014-Sep-15 12:33N 37°58' E 121°59'1915.8
2014-Sep-15 11:23N 38°10' E 121°40'1515.7
2014-Sep-15 10:26N 38°18' E 121°25'15617.5
2014-Sep-15 01:33N 38°52' E 118°10'1312.6
2014-Sep-15 00:34N 38°57' E 117°56'8 6.5
2014-Sep-14 23:23N 38°59' E 117°46'0 0.0
2014-Sep-14 22:29N 38°59' E 117°46'0 0.0
2014-Sep-14 21:29N 38°59' E 117°46'0 0.0
2014-Sep-14 20:17N 38°59' E 117°46'0 0.0
2014-Sep-14 19:29N 38°59' E 117°46'0 0.0
2014-Sep-14 18:29N 38°59' E 117°46'0 0.0
2014-Sep-14 15:29N 38°59' E 117°46'0 0.1
2014-Sep-14 14:29N 38°59' E 117°46'0 0.0
2014-Sep-14 13:17N 38°59' E 117°46'0 0.0
2014-Sep-14 12:29N 38°59' E 117°46'0 0.0
2014-Sep-14 11:29N 38°59' E 117°46'0 0.0
2014-Sep-14 10:11N 38°59' E 117°46'0 0.0
2014-Sep-14 09:29N 38°59' E 117°46'0 0.0
2014-Sep-14 08:29N 38°59' E 117°46'0 0.0
2014-Sep-14 07:33N 38°59' E 117°46'9 8.7
2014-Sep-14 06:33N 38°57' E 117°57'8 8.1
2014-Sep-14 05:33N 38°55' E 118°07'4 3.7
2014-Sep-14 04:32N 38°55' E 118°12'3 0.4
2014-Sep-13 21:12N 38°53' E 118°15'7713.6
2014-Sep-13 15:33N 38°44' E 119°53'1312.9
2014-Sep-13 14:32N 38°42' E 120°10'1212.5
2014-Sep-13 13:33N 38°41' E 120°25'1212.0
2014-Sep-13 12:33N 38°39' E 120°40'1210.7
2014-Sep-13 11:26N 38°37' E 120°55'1011.8
2014-Sep-13 10:34N 38°31' E 121°07'1312.6
2014-Sep-13 09:33N 38°31' E 121°23'1313.1
2014-Sep-13 08:34N 38°32' E 121°40'1313.2
2014-Sep-13 07:33N 38°43' E 121°48'1312.9
2014-Sep-13 06:33N 38°54' E 121°56'6 0.5
2014-Sep-12 18:13N 39°00' E 121°53'910.7
2014-Sep-12 17:24N 38°52' E 121°57'1213.3
2014-Sep-12 16:31N 38°42' E 122°04'1313.9
2014-Sep-12 15:33N 38°30' E 122°12'1414.0
2014-Sep-12 14:33N 38°17' E 122°20'1414.5
2014-Sep-12 13:33N 38°04' E 122°28'1514.8
2014-Sep-12 12:33N 37°51' E 122°37'1515.2
2014-Sep-12 11:34N 37°38' E 122°45'1515.2
2014-Sep-12 10:33N 37°23' E 122°52'1514.7
2014-Sep-12 09:33N 37°09' E 122°53'1414.1
2014-Sep-12 08:33N 36°55' E 122°53'1413.7
2014-Sep-12 07:33N 36°41' E 122°53'  

Dump ship's entire track history